Погода в Шадринске

Хотите узнать прогноз погоды в Шадринске? Тогда Вам сюда: Погода в Шадринске

Поиск расширенной информации на нашем сайте:

Полезная информация:

Новости сайта



02.01.2020
Опубликован Долгосрочный прогноз погоды по городам России и ближнего зарубежья на январь 2020 года.
Карты: Прогноз на январь и февраль 2020 года, Сравнение прогнозируемой аномалии приземной температуры воздуха на январь 2020 года по разным моделям.




Погода в Шадринске - сегодня

Время (UTC), дата Ветер
(°,м/с) 
Видим.   Явления Облачность Т
(°С)
Тd
(°С)
f(%) Тe
(°С)
Pmin
(гПа)
dP
(гПа)
Po
(мм)
O2
(г/м3)
Тmin Tmax R s Состояние
почвы
15 27.03.20 210 (ЮЗ) 10 км    3/1 600 м средняя 
[Sc|Ac trans]
+0.9 -6.9 56 +2  1022.2  1.2  758  305    +6.8       
18 27.03.20 280 (З) 10 км    3/0 средняя, верхняя 
[Ac trans|Ci sp]
-0.4 -6.7 62 1023.1  0.8  759  307           
21 27.03.20 260 (З) 10 км    3/0 верхняя 
[Ci sp]
-2.5 -7.3 70 -2  1024.3  760  310           
00 28.03.20 250 (З) 10 км    ясно 
-3.6 -7.6 74 -3  1025.4  760  311           
03 28.03.20 260 (З) 10 км    ясно 
-2.1 -7.5 66 -2  1026.2  0.9  761  310  -4      мокрый или
старый снег
10-40% 
06 28.03.20 240 (ЮЗ) 10 км    ясно 
+3.7 -7.9 42 +2  1026.2  0.2  761  303           
09 28.03.20 270 (З) 10 км    ясно 
+7.9 -7.5 33 +7  1024.7  -1.3  760  298           
12 28.03.20 230 (ЮЗ) 10 км    4/3 600 м верхняя 
[Sc|Ci sp]
+8.6 -7 32 +7  1023.4  -1.3  759  297           
15 28.03.20 230 (ЮЗ) 10 км    6/4 600 м кучево-дожд., верхняя 
[Cb cap|Ci sp]
+5 -4.2 51 +4  1023.2  -0.3  759  301    +9.1       
18 28.03.20 280 (З) 10 км    8/6 600 м кучево-дожд., верхняя 
[Cb cap|Ci sp]
+4.1 -3.5 58 +3  1023.2  0.1  759  302           
21 28.03.20 260 (З) 10 км    8/4 600 м кучево-дожд., верхняя 
[Cb cap|Ci sp]
+3.2 -3.3 62 +2  1022.7  -0.5  759  303           
00 29.03.20 260 (З) 10 км    6/3 600 м верхняя 
[Sc|Ci sp]
+2 -3.3 68 +1  1022.9  0.2  759  304           
03 29.03.20 250 (З) 10 км    4/0 верхняя 
[Ci sp]
+3.8 -3.1 61 +3  1022.9  759  302  +1.1      мокрый или
старый снег
10-40% 
06 29.03.20 250 (З) 10 км    3/0 верхняя 
[Ci sp]
+7.5 -1.6 52 +6  1022.7  759  298           
09 29.03.20 250 (З) 10 км    3/0 верхняя 
[Ci sp]
+10.9 -2.3 40 +10  1021.2  -1.3  758  294           
12 29.03.20 230 (ЮЗ) 10 км    8/0 верхняя 
[Ci sp]
+10.3 -3.3 38 +9  1019.7  -1.6  757  294           
15 29.03.20 200 (Ю) 3{10}  10 км    8/3 600 м верхняя 
[Sc|Ci sp]
+6.2 -2.1 55 +5  1018.9  -0.9  756  298    +11.1       
18 29.03.20 210 (ЮЗ) 10 км    4/0 верхняя 
[Ci sp]
+5 -3.9 53 +3  1018.4  -0.5  755  299           
21 29.03.20 270 (З) 10 км    ясно 
+3 -3 65 +2  1018.2  -0.3  755  301           
00 30.03.20 200 (Ю) 10 км    ясно 
+0.8 -3.2 75 +1  1018.3  755  304           
03 30.03.20 220 (ЮЗ) 10 км    8/0 верхняя 
[Ci sp]
+2.2 -2.8 69 +3  1018.4  0.2  755  302  -0.3      мокрый или
старый снег
10-40% 
06 30.03.20 210 (ЮЗ) 10 км    10/4 600 м верхняя 
[Sc|Ci sp]
+8.6 -1.7 48 +8  1018  0.1  755  295           
09 30.03.20 200 (Ю) 10 км    10/3 600 м верхняя 
[Sc|Ci sp]
+12.2 -0.9 40 +12  1017.2  -0.7  755  291           
12 30.03.20 200 (Ю) 5{10}  10 км    10/3 600 м верхняя 
[Sc|Ci sp]
+12.4 +0.3 43 +12  1016.7  -0.5  754  291           
15 30.03.20 200 (Ю) 10 км    8/3 600 м верхняя 
[Sc|Ci sp]
+8.8 -0.3 53 +8  1016.5  -0.3  754  294    +12.8       
Время (UTC), дата Ветер
(°,м/с) 
Видим.   Явления Облачность Т
(°С)
Тd
(°С)
f(%) Тe
(°С)
Pmin
(гПа)
dP
(гПа)
Po
(мм)
O2
(г/м3)
Тmin Tmax R s Состояние
почвы

Для получения пояснительной информации подведите курсор к названию столбца.

ПОГОДА в Шадринске - архив

Всё, что Вы хотите узнать о погоде в Шадринске - удобно и подробно!

Выберите нужную дату (начиная с 1 января 2019* года) и нажмите кнопку "Найти".
Будут отображены архивные сводки погоды по пункту Шадринск, начиная с указанной даты.


Отображать данные в формате CSV (для использования в таблицах Excel)


Внимание! Наш архив погоды предназначен исключительно для личного некоммерческого использования в познавательных целях. Если Вам необходимы официальные справки о состоянии погоды (для производственных, юридических, коммерческих и т.п. целей), обращайтесь в органы Росгидромета.

*Примечание: данная дата относится к архиву по метеостанциям СССР (Россия, СНГ, Балтия).
Архив по метеостанциям Зарубежной Европы и Азии (кроме Китая) хранится 10 дней, по другим регионам земного шара (Китай, Африка, Америка, Австралия, Океания) - 1 день.

Шадринск - район местоположения метеостанции


Название, широта, долгота, высота метеостанции:
Шадринск 56.1°ш. 63.6°д. 89 м над ур. моря [Российская Федерация]

Дополнительная информация

В oтличие oт бoльшинства пoгoдных сайтoв мы публикуем пoдрoбную метеoинфoрмацию в детальнoм прoфессиoнальнoм фoрмате.

Характеристики температуры и влажнoсти вoздуха измеряются на высoте 2 м в тени вдали oт зданий и деревьев.
Скoрoсть ветра измеряется на высoте 10 м (на урoвне рoста челoвека скoрoсть ветра ниже в 1.5-2 раза). Если метеoстанция нахoдится в гoрoде или в лесу, тo скoрoсть ветра занижена на 2-4 м/с пo сравнению с oткрытым местoм. Скoрoсть ветра над акватoриями крупных рек и oзёр, а также на вершинах хoлмoв на 2-5 м/с выше, чем в oбычных услoвиях.
Атмoсфернoе давление в разных тoчках местнoсти мoжет значительнo oтличаться oт давления на метеoстанции, в зависимoсти oт услoвий рельефа (при пoдъёме на 10 м давление пoнижается примернo на 1 мм рт.ст.).